Weather History for KJAC - July, 2014

Change the Weather History Date:

Wednesday, July 23, 2014

  Actual Average Record
Temperature  
Mean Temperature 66 °F -  
Max Temperature 89 °F 79 °F 91 °F (1959)
Min Temperature 44 °F 42 °F 33 °F (1981)
Cooling Degree Days 2    
Growing Degree Days 16 (Base 50)    
Moisture  
Dew Point 40 °F    
Average Humidity 53    
Maximum Humidity 87    
Minimum Humidity 12    
Precipitation  
Precipitation 0.00 in - - ()
Sea Level Pressure  
Sea Level Pressure 30.27 in    
Wind  
Wind Speed 4 mph (North)    
Max Wind Speed 21 mph    
Max Gust Speed -    
Visibility 10 miles    
Events      
Averages and records for this station are not official NWS values.
T = Trace of Precipitation, MM = Missing Value Source: NWS Daily Summary

Daily Weather History Graph

Daily Weather History Graph

Search for Another Location

Airport or City:

Trip Planner

Search our weather history database for the weather conditions in past years. The results will help you decide how hot, cold, wet, or windy it might be!

Date:

Astronomy

Jul. 23, 2014 Rise Set
Actual Time 6:02 AM MDT 8:55 PM MDT
Civil Twilight 5:29 AM MDT 9:28 PM MDT
Nautical Twilight 4:46 AM MDT 10:11 PM MDT
Astronomical Twilight 3:56 AM MDT 11:01 PM MDT
Moon 3:25 AM MDT (7/23) 6:26 PM MDT (7/23)
Length of Visible Light 15h 59m
Length of Day
14h 52m
Waning Crescent, 9% of the Moon is Illuminated
Jul 23
Waning Crescent
Jul 26
New
Aug 3
First Quarter
Aug 10
Full
Aug 17
Last Quarter

Hourly Weather History & Observations

Time (MDT) Temp. Windchill Dew Point Humidity Pressure Visibility Wind Dir Wind Speed Gust Speed Precip Events Conditions
12:15 AM 53.6 °F - 44.6 °F 72% 30.34 in 10.0 mi North 5.8 mph - N/A   Clear
12:35 AM 51.8 °F - 42.8 °F 71% 30.35 in 10.0 mi ENE 3.5 mph - N/A   Clear
12:55 AM 55.4 °F - 42.8 °F 63% 30.35 in 10.0 mi NE 3.5 mph - N/A   Clear
1:15 AM 53.6 °F - 42.8 °F 67% 30.35 in 10.0 mi North 5.8 mph - N/A   Clear
1:35 AM 50.0 °F - 42.8 °F 76% 30.35 in 10.0 mi NNW 4.6 mph - N/A   Clear
1:55 AM 51.8 °F - 42.8 °F 71% 30.33 in 10.0 mi North 5.8 mph - N/A   Clear
2:15 AM 51.8 °F - 44.6 °F 76% 30.33 in 10.0 mi NNE 4.6 mph - N/A   Clear
2:35 AM 51.8 °F - 42.8 °F 71% 30.33 in 10.0 mi Calm Calm - N/A   Clear
2:55 AM 51.8 °F - 42.8 °F 71% 30.33 in 10.0 mi WNW 3.5 mph - N/A   Clear
3:15 AM 51.8 °F - 42.8 °F 71% 30.33 in 10.0 mi Calm Calm - N/A   Clear
3:35 AM 48.2 °F - 42.8 °F 82% 30.33 in 10.0 mi Calm Calm - N/A   Clear
3:55 AM 51.8 °F - 41.0 °F 67% 30.33 in 10.0 mi Calm Calm - N/A   Clear
4:15 AM 51.8 °F - 41.0 °F 67% 30.33 in 10.0 mi Calm Calm - N/A   Clear
4:35 AM 48.2 °F - 39.2 °F 71% 30.33 in 10.0 mi Calm Calm - N/A   Clear
4:55 AM 46.4 °F 43.5 °F 39.2 °F 76% 30.33 in 10.0 mi North 5.8 mph - N/A   Clear
5:15 AM 46.4 °F 42.9 °F 41.0 °F 81% 30.33 in 10.0 mi North 6.9 mph - N/A   Clear
5:35 AM 44.6 °F 42.2 °F 41.0 °F 87% 30.34 in 10.0 mi NNW 4.6 mph - N/A   Clear
5:55 AM 46.4 °F 43.5 °F 41.0 °F 81% 30.34 in 10.0 mi North 5.8 mph - N/A   Clear
6:15 AM 46.4 °F 44.3 °F 42.8 °F 87% 30.34 in 10.0 mi North 4.6 mph - N/A   Clear
6:35 AM 48.2 °F - 42.8 °F 82% 30.34 in 10.0 mi NE 3.5 mph - N/A   Clear
6:55 AM 50.0 °F - 41.0 °F 71% 30.34 in 10.0 mi Calm Calm - N/A   Clear
7:55 AM 53.6 °F - 42.8 °F 67% 30.35 in 10.0 mi Calm Calm - N/A   Clear
8:55 AM 57.2 °F - 42.8 °F 59% 30.35 in 10.0 mi Calm Calm - N/A   Clear
9:55 AM 64.4 °F - 42.8 °F 45% 30.34 in 10.0 mi South 4.6 mph - N/A   Clear
10:55 AM 69.8 °F - 44.6 °F 40% 30.33 in 10.0 mi South 3.5 mph - N/A   Clear
11:51 AM 80.6 °F - 44.6 °F 28% 30.31 in 10.0 mi Calm Calm - N/A   Clear
12:53 PM 86.0 °F - 33.8 °F 15% 30.29 in 10.0 mi Calm Calm - N/A   Clear
1:55 PM 87.8 °F - 28.4 °F 12% 30.28 in 10.0 mi South 20.7 mph - N/A   Clear
2:55 PM 86.0 °F - 30.2 °F 13% 30.26 in 10.0 mi South 13.8 mph - N/A   Clear
3:55 PM 89.6 °F - 32.0 °F 13% 30.23 in 10.0 mi SSW 12.7 mph - N/A   Clear
4:59 PM 89.6 °F - 32.0 °F 13% 30.21 in 10.0 mi SSW 8.1 mph - N/A   Clear
5:51 PM 89.6 °F - 30.2 °F 12% 30.19 in 10.0 mi SSW 15.0 mph - N/A   Clear
6:51 PM 87.8 °F - 32.0 °F 14% 30.17 in 10.0 mi SSW 12.7 mph - N/A   Clear
7:51 PM 84.2 °F - 33.8 °F 16% 30.16 in 10.0 mi SSW 5.8 mph - N/A   Clear
8:55 PM 73.4 °F - 39.2 °F 29% 30.15 in 10.0 mi WSW 5.8 mph - N/A   Clear
9:15 PM 71.6 °F - 39.2 °F 31% 30.16 in 10.0 mi Calm Calm - N/A   Clear
9:35 PM 68.0 °F - 37.4 °F 33% 30.16 in 10.0 mi NNE 4.6 mph - N/A   Clear
9:55 PM 62.6 °F - 41.0 °F 45% 30.16 in 10.0 mi North 10.4 mph - N/A   Clear
10:15 PM 59.0 °F - 42.8 °F 55% 30.16 in 10.0 mi North 5.8 mph - N/A   Clear
10:35 PM 60.8 °F - 39.2 °F 45% 30.16 in 10.0 mi North 5.8 mph - N/A   Clear
10:55 PM 59.0 °F - 41.0 °F 51% 30.15 in 10.0 mi Calm Calm - N/A   Clear
11:15 PM 62.6 °F - 41.0 °F 45% 30.14 in 10.0 mi North 3.5 mph - N/A   Clear
11:35 PM 62.6 °F - 42.8 °F 48% 30.14 in 10.0 mi NNW 3.5 mph - N/A   Clear
11:55 PM 57.2 °F - 39.2 °F 51% 30.14 in 10.0 mi Calm Calm - N/A   Clear